Regional Weather Roundup
Issued by NWS

Home | Current Version | Previous Version | Text Only | Print | Product List | Glossary Off
Versions: 1 2 3 4 5 6 7 8 9 10 11 12 13 14 15 16 17 18 19 20 21 22 23 24 25 26 27 28 29 30 31 32 33 34 35 36 37 38 39 40 41 42 43 44 45 46 47 48 49 50

000
ASUS43 KLOT 310621
RWRIL

ILLINOIS REGIONAL WEATHER ROUNDUP
NATIONAL WEATHER SERVICE CHICAGO/ROMEOVILLE IL
100 AM CDT FRI JUL 31 2015

NOTE: "FAIR" INDICATES FEW OR NO CLOUDS BELOW 12,000 FEET WITH NO
SIGNIFICANT WEATHER AND/OR OBSTRUCTIONS TO VISIBILITY.

* THESE STATIONS ARE NOT UNDER NWS QUALITY CONTROL. THEY ALSO MAY NOT
  REPORT WEATHER SUCH AS PRECIPITATION OR FOG.

ILZ001-002-007-009-015-016-024-310700-
NORTHWEST ILLINOIS

CITY           SKY/WX    TMP DP  RH WIND       PRES   REMARKS
MOLINE         CLEAR     68  64  87 SW3       30.08R
6HR MIN TEMP:  68; 6HR MAX TEMP:  85;

STERLING*      CLEAR     66  63  88 W5        30.04R
SAVANNA*       CLEAR     64  62  93 CALM      30.06S
$$

ILZ003-004-008-010-011-017-018-310700-
NORTH CENTRAL ILLINOIS

CITY           SKY/WX    TMP DP  RH WIND       PRES   REMARKS
ROCKFORD       CLEAR     68  58  70 CALM      30.06R
6HR MIN TEMP:  68; 6HR MAX TEMP:  84;

FREEPORT*      CLEAR     65  58  78 W3        30.07S
ROCHELLE*      CLEAR     64  61  91 SW6       30.06S
DE KALB*       CLEAR     69  60  73 W9        30.06S
PERU*          CLEAR     68  64  87 W8        30.07R
$$

ILZ005-006-012>014-019>023-310700-
NORTHEAST ILLINOIS

CITY           SKY/WX    TMP DP  RH WIND       PRES   REMARKS
CHICAGO-OHARE  CLEAR     74  58  57 W9        30.02S
6HR MIN TEMP:  74; 6HR MAX TEMP:  85;

CHICAGO-MIDWAY CLEAR     77  58  51 NW8       30.02S
6HR MIN TEMP:  77; 6HR MAX TEMP:  87;

AURORA         CLEAR     62  58  86 W6        30.05S
6HR MIN TEMP:  62; 6HR MAX TEMP:  81;

LANSING*       CLEAR     70  62  75 W5        30.03S
JOLIET*        CLEAR     71  65  81 CALM      30.04S
WAUKEGAN       CLEAR     69  58  67 W3        30.01R
6HR MIN TEMP:  69; 6HR MAX TEMP:  82;

DUPAGE AIRPORT CLEAR     71  59  65 W7        30.03S
6HR MIN TEMP:  71; 6HR MAX TEMP:  83;

KANKAKEE*      CLEAR     69  66  90 W3        30.06R
WHEELING       CLEAR     74  56  53 W5        30.03S
6HR MIN TEMP:  74; 6HR MAX TEMP:  85;

MORRIS*        CLEAR     65  63  93 W3        30.04S
ROMEOVILLE*    CLEAR     68  62  80 W6        30.04S
NORTHERLY ISL    N/A     77  58  51 W7          N/A
$$

LMZ740>746-310700-
SOUTHERN LAKE MICHIGAN

STATION/POSITION SKY/WX   TEMP    WIND        PRES    VSBY  WAVE
                          AIR SEA DIR/SP/G                  HT/PER
                          (F)     (DEG/KT/KT) (MB)    (MI)  (FT/S)
HARRISON CRIB              78     280/ 15/ 18   N/A
BURNHAM HARBOR             76     270/  5/  9   N/A
CALUMET HARBOR             77     270/  3/  8   N/A
BURNS HARBOR               77     230/  9/ 11 1016.6S
MICHIGAN CITY              76     220/ 12/ 14   N/A
MICHIGAN CITY 6N           76 74  280/ 10/ 14   N/A           2/ 3
ST. JOSEPH                 75 74  300/ 12/ 14   N/A           1/ 3
$$

ILZ025>027-034>036-040-047-049-050-058-095>099-310700-
WEST-CENTRAL ILLINOIS

CITY           SKY/WX    TMP DP  RH WIND       PRES   REMARKS
QUINCY         CLEAR     70  65  84 W6        30.13R
GALESBURG*     CLEAR     69  63  82 W3        30.10R
MACOMB*        CLEAR     66  65  97 W3        30.13R
JACKSONVILLE*  CLEAR     71  67  87 SW6       30.12R
PITTSFIELD*    CLEAR     73  65  77 W5        30.14R
$$

ILZ028>032-037-038-041>044-048-051>054-059>061-310700-
CENTRAL ILLINOIS

CITY           SKY/WX    TMP DP  RH WIND       PRES   REMARKS
PONTIAC        CLEAR     69  67  93 W6        30.08R
BLOOMINGTON    CLEAR     72  66  81 W8        30.10R
DECATUR        CLEAR     74  64  71 W8        30.10R
PEORIA         CLEAR     73  65  75 W5        30.09R
6HR MIN TEMP:  73; 6HR MAX TEMP:  86;

LACON*         CLEAR     73  65  78 W3        30.07R
LINCOLN*       CLEAR     75  66  73 CALM      30.09R
SPRINGFIELD    CLEAR     69  65  86 W5        30.11R
6HR MIN TEMP:  68; 6HR MAX TEMP:  84;

TAYLORVILLE    CLEAR     68  64  88 W6        30.10S
$$

ILZ033-039-045-046-055>057-062-063-310700-
EAST-CENTRAL ILLINOIS

CITY           SKY/WX    TMP DP  RH WIND       PRES   REMARKS
CHAMPAIGN      CLEAR     67  64  90 W5        30.09R
DANVILLE*      CLEAR     65  64  96 SW3       30.05S
RANTOUL*       CLEAR     71  66  84 W6        30.08R
MATTOON        CLEAR     72  63  73 W7        30.09R
PARIS*         CLEAR     65  64  96 W3        30.09S
$$

ILZ079-100>102-310700-
SOUTHWEST ILLINOIS

CITY           SKY/WX    TMP DP  RH WIND       PRES   REMARKS
ALTON          CLEAR     67  65  93 CALM      30.12R
BELLEVILLE     CLEAR     69  69  99 CALM      30.10S
CAHOKIA*       CLEAR     74  65  73 SW5       30.11S
SPARTA*        CLEAR     72  65  80 W3        30.13R
$$

ILZ064>066-069>071-074>076-080>082-084>086-088>090-092>094-310700-
SOUTH-CENTRAL ILLINOIS

CITY           SKY/WX    TMP DP  RH WIND       PRES   REMARKS
CARBONDALE     CLEAR     69  66  90 CALM      30.11S
6HR MIN TEMP:  68; 6HR MAX TEMP:  85;

CAIRO*         CLEAR     68  67  97 CALM      30.11S
EFFINGHAM*     CLEAR     68  64  85 CALM      30.11S
MARION         CLEAR     70  68  94 CALM      30.12R
MT. VERNON     CLEAR     66  61  82 CALM      30.11S
CENTRALIA*     CLEAR     66  63  89 NW5       30.11S
SALEM*         CLEAR     68  65  89 W3        30.11S
METROPOLIS*    CLEAR     68  68 100 CALM      30.11S
$$

ILZ067-068-072-073-078-083-087-091-310700-
SOUTHEAST ILLINOIS

CITY           SKY/WX    TMP DP  RH WIND       PRES   REMARKS
LAWRENCEVILLE  CLEAR     70  65  84 NW3       30.09S
FLORA*         CLEAR     75  64  67 W8        30.10S
FAIRFIELD*     CLEAR     69  66  89 CALM      30.09S
HARRISBURG*    CLEAR     67  67 100 CALM      30.11S
ROBINSON*      CLEAR     66  64  94 CALM      30.09S
CARMI*         CLEAR     68  62  79 CALM      30.09S
$$

ABBREVIATIONS USED IN REMARKS
   TC - TEMPERATURE IN CELSIUS
  WCI - WIND CHILL INDEX
   HX - HEAT INDEX
  VSB - VISIBILITY
$$




USA.gov is the U.S. government's official web portal to all federal, state and local government web resources and services.